Regional Weather Roundup
Issued by NWS

Home | Current Version | Previous Version | Graphics & Text | Print | Product List | Glossary On
Versions: 1 2 3 4 5 6 7 8 9 10 11 12 13 14 15 16 17 18 19 20 21 22 23 24 25 26 27 28 29 30 31 32 33 34 35 36 37 38 39 40 41 42 43 44 45 46 47 48 49 50
000
ASUS45 KABQ 010501
RWRNM
WEATHER ROUNDUP FOR NEW MEXICO
NATIONAL WEATHER SERVICE ALBUQUERQUE NM
1100 PM MDT THU JUL 31 2014

NOTE: "FAIR" MEANS FEW OR NO CLOUDS BELOW 12,000 FEET AGL WITH NO
       SIGNIFICANT WEATHER OR OBSTRUCTIONS TO VISION.

      THIS PRODUCT IS RELEASED AS TWO VERSIONS.  ONE VERSION NEAR
      THE TOP OF THE HOUR CONTAINING PRELIMINARY DATA FROM ALBUQUERQUE
      AND OTHER STATIONS.  A FINAL VERSION WITH ADDITIONAL DATA IS
      ISSUED ABOUT 10 MINUTES AFTER THE HOUR.

NMZ501-503-504-510>518-010600-
NORTHWEST PLATEAU/NORTHCENTRAL MOUNTAINS

CITY           SKY/WX    TMP DP  RH WIND       PRES   REMARKS
FARMINGTON     PTCLDY    70  52  52 CALM      30.18S
LOS ALAMOS     FOG       55  55 100 E5        30.39R VSB<1/4
SANTA FE       CLOUDY    58  54  86 SW8       30.33R
TAOS             N/A     55  52  88 NE3       30.39R
ANGEL FIRE     MOCLDY    53  51  93 CALM      30.47S

$$
NMZ402-403-502-505>509-010600-
WESTCENTRAL MOUNTAINS/SOUTHWEST MOUNTAINS

CITY           SKY/WX    TMP DP  RH WIND       PRES   REMARKS
GALLUP         MOCLDY    62  54  74 S10       30.31F

$$
NMZ407-409-411-412-010600-
SOUTHERN DESERTS

CITY           SKY/WX    TMP DP  RH WIND       PRES   REMARKS
LORDSBURG      CLOUDY    72  59  64 SE9       30.18R
DEMING         LGT RAIN  67  64  90 NW7       30.20R FOG
LAS CRUCES     CLOUDY    77  59  53 SE8       30.17R
HOLLOMAN AFB   MOCLDY    79  61  53 S8        30.13R
T OR C         LGT RAIN  64  62  93 E12       30.25R

$$
NMZ519>523-010600-
CENTRAL VALLEYS/CENTRAL HIGHLANDS

CITY           SKY/WX    TMP DP  RH WIND       PRES   REMARKS
ALBUQUERQUE    CLOUDY    66  53  63 E17       30.27R
DOUBLE EAGLE   CLOUDY    62  56  83 S7        30.30S
CLINES CORNERS LGT RAIN  55  54  96 SE14      30.37F
BELEN          MOCLDY    66  58  75 SW9       30.26S
SOCORRO        FAIR      66  58  77 CALM      30.29R

$$
NMZ524>526-539-540-010600-
SOUTHCENTRAL MOUNTAINS

CITY           SKY/WX    TMP DP  RH WIND       PRES   REMARKS
RUIDOSO        NOT AVBL

$$
NMZ527>531-010600-
NORTHEAST HIGHLANDS/NORTHEAST PLAINS

CITY           SKY/WX    TMP DP  RH WIND       PRES   REMARKS
LAS VEGAS      CLOUDY    54  52  93 CALM      30.37S
RATON          CLOUDY    59  57  93 CALM      30.35R
CLAYTON        CLOUDY    66  56  70 S7        30.29R

$$
NMZ532>537-010600-
EASTCENTRAL PLAINS

CITY           SKY/WX    TMP DP  RH WIND       PRES   REMARKS
TUCUMCARI      CLOUDY    73  54  51 E7        30.22S
CANNON AFB     NOT AVBL
CLOVIS AIRPORT NOT AVBL

$$
NMZ028-029-538-010600-
SOUTHEAST PLAINS

CITY           SKY/WX    TMP DP  RH WIND       PRES   REMARKS
ROSWELL        CLOUDY    74  63  68 CALM      30.17S
ARTESIA        CLOUDY    72  66  83 CALM      30.17S
CARLSBAD       CLOUDY    76  67  73 N5        30.15R
HOBBS          MOCLDY    73  54  49 CALM      30.19R


$$


USA.gov is the U.S. government's official web portal to all federal, state and local government web resources and services.